Tracking 31027 objects as of 19-Jul-2025
HD Live streaming from Space Station
objects crossing your sky now

STARLINK-3941

Track STARLINK-3941 now!
10-day predictions
STARLINK-3941 is classified as:


NORAD ID: 52638
Int'l Code: 2022-052AS
Perigee: 546.1 km
Apogee: 547.7 km
Inclination: 53.2 °
Period: 95.4 minutes
Semi major axis: 6917 km
RCS: Unknown
Launch date: May 14, 2022
Source: United States (US)
Launch site: AIR FORCE EASTERN TEST RANGE (AFETR)
Your satellite tracking list
FLOCK 3P 17
Track 1 satellite(s)




NASA's NSSDC Master Catalog

Two Line Element Set (TLE):
1 52638U 22052AS  25199.40975434  .00000380  00000-0  41947-4 0  9997
2 52638  53.2162 240.8449 0001119  86.3930 273.7190 15.08835947176437
Source of the keplerian elements: AFSPC